Zurück zum Katalog

PSLV R/B

AktivSSO
NORAD 28050·ROCKET BODY·🇮🇳 India

Gestartet Oct 17, 2003 von Satish Dhawan Space Centre

Loading…

Nächste Überflüge (nächste 24 Stunden)

TLE

AktuellSource: Space-Track

Epoche: Sep 14, 2026, 10:04 UTC

1 28050U 03046B   26257.41971372  .00000036  00000-0  40084-4 0  9993
2 28050  99.0765 238.2972 0051031  18.9937 143.5363 14.17613267184739

Verfolge PSLV R/B in Echtzeit mit AllMySat

Download on the App Store